Kokomo, IN

5:57 PM EDT on April 26, 2017 (GMT -0400)
Kokomo Municipal

Weather History for KOKK - May, 2013

Change the Weather History Date:

Friday, May 24, 2013

  Actual Average (KGUS) Record (KGUS)
Temperature  
Mean Temperature 52 °F -  
Max Temperature 64 °F 69 °F 86 °F (2007)
Min Temperature 41 °F 53 °F 39 °F (2013)
Degree Days  
Heating Degree Days 12    
Growing Degree Days 2 (Base 50)    
Moisture  
Dew Point 40 °F    
Average Humidity 63    
Maximum Humidity 93    
Minimum Humidity 34    
Precipitation  
Precipitation 0.00 in - - ()
Sea Level Pressure  
Sea Level Pressure 30.29 in    
Wind  
Wind Speed 10 mph (North)    
Max Wind Speed 14 mph    
Max Gust Speed 20 mph    
Visibility 10 miles    
Events      
Averages and records for this station are not official NWS values.
T = Trace of Precipitation, MM = Missing Value Source: NWS Daily Summary

Daily Weather History Graph

Daily Weather History Graph

Search for Another Location

Airport or City:

Trip Planner

Search our weather history database for the weather conditions in past years. The results will help you decide how hot, cold, wet, or windy it might be!

Date:

Astronomy

May. 24, 2013 Rise Set
Actual Time 5:20 AM CDT 8:02 PM CDT
Civil Twilight 4:48 AM CDT 8:34 PM CDT
Nautical Twilight 4:08 AM CDT 9:14 PM CDT
Astronomical Twilight 3:23 AM CDT 10:00 PM CDT
Moon 7:43 PM CDT (5/24) 4:52 AM CDT (5/24)
Length of Visible Light 15h 46m
Length of Day
14h 42m
Full, 100% of the Moon is Illuminated
May 24
Full
May 24
Full
May 31
Last Quarter
Jun 8
New
Jun 16
First Quarter

Hourly Weather History & Observations

Time (CDT) Temp. Windchill Dew Point Humidity Pressure Visibility Wind Dir Wind Speed Gust Speed Precip Events Conditions
12:15 AM 46.4 °F 40.7 °F 42.8 °F 87% 30.18 in 10.0 mi NNW 12.7 mph - N/A   Overcast
12:35 AM 46.4 °F 40.4 °F 42.8 °F 87% 30.18 in 10.0 mi NNW 13.8 mph - N/A   Overcast
12:55 AM 46.4 °F 40.7 °F 42.8 °F 87% 30.18 in 10.0 mi North 12.7 mph - N/A   Overcast
1:15 AM 46.4 °F 41.1 °F 41.0 °F 81% 30.19 in 10.0 mi North 11.5 mph - N/A   Overcast
1:35 AM 46.4 °F 41.1 °F 41.0 °F 81% 30.19 in 10.0 mi NNW 11.5 mph - N/A   Overcast
1:55 AM 46.4 °F 41.9 °F 41.0 °F 81% 30.19 in 10.0 mi NNW 9.2 mph - N/A   Overcast
2:15 AM 46.4 °F 41.5 °F 42.8 °F 87% 30.20 in 10.0 mi NNW 10.4 mph - N/A   Overcast
2:35 AM 46.4 °F 41.1 °F 42.8 °F 87% 30.21 in 10.0 mi NNW 11.5 mph - N/A   Overcast
2:55 AM 46.4 °F 41.5 °F 41.0 °F 81% 30.21 in 10.0 mi NNW 10.4 mph - N/A   Overcast
3:15 AM 44.6 °F 39.2 °F 39.2 °F 81% 30.22 in 10.0 mi NNW 10.4 mph - N/A   Mostly Cloudy
3:35 AM 44.6 °F 39.7 °F 41.0 °F 87% 30.22 in 10.0 mi North 9.2 mph - N/A   Scattered Clouds
3:55 AM 44.6 °F 40.7 °F 41.0 °F 87% 30.23 in 10.0 mi North 6.9 mph - N/A   Mostly Cloudy
4:15 AM 42.8 °F 38.6 °F 39.2 °F 87% 30.24 in 10.0 mi North 6.9 mph - N/A   Clear
4:35 AM 42.8 °F 38.6 °F 39.2 °F 87% 30.24 in 10.0 mi NNW 6.9 mph - N/A   Clear
4:55 AM 42.8 °F 40.1 °F 39.2 °F 87% 30.25 in 10.0 mi NNW 4.6 mph - N/A   Clear
5:15 AM 42.8 °F 39.3 °F 37.4 °F 81% 30.26 in 10.0 mi NNW 5.8 mph - N/A   Clear
5:35 AM 41.0 °F 37.1 °F 37.4 °F 87% 30.27 in 10.0 mi NW 5.8 mph - N/A   Clear
5:55 AM 41.0 °F 36.4 °F 39.2 °F 93% 30.27 in 10.0 mi NW 6.9 mph - N/A   Clear
6:15 AM 42.8 °F 38.6 °F 39.2 °F 87% 30.28 in 10.0 mi NW 6.9 mph - N/A   Partly Cloudy
6:35 AM 42.8 °F 37.5 °F 39.2 °F 87% 30.29 in 10.0 mi NW 9.2 mph - N/A   Mostly Cloudy
6:55 AM 42.8 °F 37.0 °F 39.2 °F 87% 30.30 in 10.0 mi NNW 10.4 mph - N/A   Overcast
7:15 AM 42.8 °F 37.5 °F 39.2 °F 87% 30.31 in 10.0 mi NNW 9.2 mph - N/A   Overcast
7:35 AM 44.6 °F 38.8 °F 39.2 °F 81% 30.32 in 10.0 mi NNW 11.5 mph - N/A   Overcast
7:55 AM 44.6 °F 39.2 °F 39.2 °F 81% 30.32 in 10.0 mi NNW 10.4 mph - N/A   Overcast
8:15 AM 46.4 °F 41.1 °F 42.8 °F 87% 30.33 in 10.0 mi NNE 11.5 mph - N/A   Overcast
8:35 AM 48.2 °F - 42.8 °F 82% 30.34 in 10.0 mi North 8.1 mph - N/A   Mostly Cloudy
8:55 AM 50.0 °F - 42.8 °F 76% 30.34 in 10.0 mi NNE 11.5 mph - N/A   Scattered Clouds
9:15 AM 51.8 °F - 42.8 °F 71% 30.34 in 10.0 mi North 9.2 mph - N/A   Partly Cloudy
9:35 AM 51.8 °F - 42.8 °F 71% 30.35 in 10.0 mi North 4.6 mph - N/A   Partly Cloudy
9:55 AM 53.6 °F - 42.8 °F 67% 30.35 in 10.0 mi North 6.9 mph - N/A   Partly Cloudy
10:15 AM 53.6 °F - 42.8 °F 67% 30.35 in 10.0 mi North 11.5 mph - N/A   Mostly Cloudy
10:35 AM 53.6 °F - 41.0 °F 62% 30.35 in 10.0 mi NNW 12.7 mph - N/A   Mostly Cloudy
10:55 AM 55.4 °F - 41.0 °F 58% 30.35 in 10.0 mi North 9.2 mph - N/A   Mostly Cloudy
11:15 AM 55.4 °F - 41.0 °F 58% 30.35 in 10.0 mi North 9.2 mph - N/A   Partly Cloudy
11:35 AM 57.2 °F - 42.8 °F 59% 30.35 in 10.0 mi NNW 11.5 mph 19.6 mph N/A   Partly Cloudy
11:55 AM 57.2 °F - 41.0 °F 55% 30.35 in 10.0 mi NNW 6.9 mph - N/A   Clear
12:15 PM 57.2 °F - 41.0 °F 55% 30.35 in 10.0 mi NW 9.2 mph - N/A   Clear
12:35 PM 59.0 °F - 41.0 °F 51% 30.35 in 10.0 mi NNW 12.7 mph - N/A   Clear
12:55 PM 60.8 °F - 41.0 °F 48% 30.35 in 10.0 mi North 10.4 mph - N/A   Clear
1:15 PM 60.8 °F - 41.0 °F 48% 30.34 in 10.0 mi NNW 10.4 mph - N/A   Clear
1:35 PM 62.6 °F - 39.2 °F 42% 30.34 in 10.0 mi NNE 11.5 mph - N/A   Clear
1:55 PM 62.6 °F - 39.2 °F 42% 30.33 in 10.0 mi North 11.5 mph 16.1 mph N/A   Clear
2:15 PM 62.6 °F - 39.2 °F 42% 30.33 in 10.0 mi NNW 10.4 mph 16.1 mph N/A   Clear
2:35 PM 64.4 °F - 39.2 °F 40% 30.33 in 10.0 mi North 9.2 mph 16.1 mph N/A   Clear
2:55 PM 64.4 °F - 39.2 °F 40% 30.33 in 10.0 mi NNW 8.1 mph - N/A   Clear
3:15 PM 64.4 °F - 39.2 °F 40% 30.32 in 10.0 mi NNE 9.2 mph - N/A   Clear
3:35 PM 64.4 °F - 37.4 °F 37% 30.32 in 10.0 mi North 6.9 mph - N/A   Clear
3:55 PM 64.4 °F - 39.2 °F 40% 30.31 in 10.0 mi NNW 9.2 mph 16.1 mph N/A   Clear
4:15 PM 64.4 °F - 39.2 °F 40% 30.31 in 10.0 mi NNW 8.1 mph - N/A   Clear
4:35 PM 64.4 °F - 37.4 °F 37% 30.30 in 10.0 mi NNW 6.9 mph - N/A   Clear
4:55 PM 64.4 °F - 37.4 °F 37% 30.30 in 10.0 mi NNE 8.1 mph - N/A   Clear
5:15 PM 64.4 °F - 37.4 °F 37% 30.29 in 10.0 mi North 10.4 mph - N/A   Clear
5:35 PM 64.4 °F - 37.4 °F 37% 30.28 in 10.0 mi NNE 6.9 mph - N/A   Clear
5:55 PM 64.4 °F - 37.4 °F 37% 30.27 in 10.0 mi NNE 3.5 mph - N/A   Clear
6:15 PM 64.4 °F - 35.6 °F 34% 30.26 in 10.0 mi NNE 5.8 mph - N/A   Clear
6:35 PM 62.6 °F - 37.4 °F 39% 30.26 in 10.0 mi ENE 6.9 mph - N/A   Clear
6:55 PM 62.6 °F - 39.2 °F 42% 30.26 in 10.0 mi ENE 4.6 mph - N/A   Clear
7:15 PM 60.8 °F - 39.2 °F 45% 30.26 in 10.0 mi NNE 5.8 mph - N/A   Clear
7:35 PM 60.8 °F - 39.2 °F 45% 30.26 in 10.0 mi NNE 4.6 mph - N/A   Clear
7:55 PM 60.8 °F - 41.0 °F 48% 30.27 in 10.0 mi NNE 5.8 mph - N/A   Clear
8:15 PM 57.2 °F - 39.2 °F 51% 30.28 in 10.0 mi NNW 5.8 mph - N/A   Clear
8:35 PM 57.2 °F - 39.2 °F 51% 30.27 in 10.0 mi North 5.8 mph - N/A   Clear
8:55 PM 55.4 °F - 39.2 °F 54% 30.29 in 10.0 mi North 6.9 mph - N/A   Clear
9:15 PM 55.4 °F - 39.2 °F 54% 30.30 in 10.0 mi NNW 8.1 mph - N/A   Clear
9:35 PM 55.4 °F - 39.2 °F 54% 30.30 in 10.0 mi North 6.9 mph - N/A   Clear
9:55 PM 53.6 °F - 39.2 °F 58% 30.31 in 10.0 mi North 5.8 mph - N/A   Clear
10:15 PM 53.6 °F - 37.4 °F 54% 30.31 in 10.0 mi North 6.9 mph - N/A   Clear
10:35 PM 53.6 °F - 37.4 °F 54% 30.32 in 10.0 mi North 9.2 mph - N/A   Clear
10:55 PM 51.8 °F - 37.4 °F 58% 30.32 in 10.0 mi North 9.2 mph - N/A   Clear
11:15 PM 51.8 °F - 37.4 °F 58% 30.33 in 10.0 mi North 10.4 mph - N/A   Clear
11:35 PM 50.0 °F - 37.4 °F 62% 30.32 in 10.0 mi North 9.2 mph - N/A   Clear
11:55 PM 48.2 °F - 37.4 °F 66% 30.33 in 10.0 mi North 8.1 mph - N/A   Clear